This is the latest recevied weather packets stored in our database for station/object M0JUI-1. If no packets are shown the sender has not sent any weather packets the latest 10 day(s).
| Time | Temp. | Humidity | Pressure | Rain* | Wind** | Luminosity | Snow |
|---|---|---|---|---|---|---|---|
| 1788087296 | 17.78° C | 99% | 1007.7 hPa | 0 mm | - | 124 W/m² | - |
| 1788086984 | 17.78° C | 99% | 1007.7 hPa | 0 mm | - | 161 W/m² | - |
| 1788086684 | 17.78° C | 99% | 1007.9 hPa | 0 mm | - | 158 W/m² | - |
| 1788086385 | 17.78° C | 99% | 1007.8 hPa | 0 mm | - | 181 W/m² | - |
| 1788086084 | 17.78° C | 99% | 1007.9 hPa | 0 mm | - | 200 W/m² | - |
| 1788085784 | 18.33° C | 99% | 1008 hPa | 0 mm | - | 184 W/m² | - |
| 1788085484 | 18.33° C | 99% | 1007.9 hPa | 0 mm | - | 252 W/m² | - |
| 1788085185 | 18.33° C | 99% | 1007.8 hPa | 0 mm | - | 451 W/m² | - |
| 1788084885 | 17.78° C | 99% | 1007.8 hPa | 0 mm | - | 796 W/m² | - |
| 1788084584 | 17.78° C | 99% | 1007.7 hPa | 0 mm | - | 262 W/m² | - |
| 1788084284 | 17.78° C | 99% | 1008 hPa | 0 mm | - | 253 W/m² | - |
| 1788083984 | 17.22° C | 99% | 1008 hPa | 0 mm | - | 200 W/m² | - |
| 1788083684 | 17.22° C | 99% | 1008.1 hPa | 0 mm | - | 262 W/m² | - |
| 1788083384 | 17.22° C | 99% | 1008.1 hPa | 0 mm | - | 123 W/m² | - |
| 1788083084 | 17.78° C | 99% | 1008.1 hPa | 0 mm | - | 225 W/m² | - |
| 1788082784 | 18.89° C | 99% | 1008 hPa | 0 mm | - | 207 W/m² | - |
| 1788082472 | 18.33° C | 99% | 1007.9 hPa | 0 mm | - | 524 W/m² | - |
| 1788082172 | 17.78° C | 99% | 1007.9 hPa | 0 mm | - | 562 W/m² | - |
| 1788081872 | 17.78° C | 99% | 1008 hPa | 0 mm | - | 328 W/m² | - |
| 1788081572 | 17.22° C | 99% | 1007.9 hPa | 0 mm | - | 552 W/m² | - |
| 1788081272 | 17.22° C | 99% | 1007.9 hPa | 0 mm | - | 487 W/m² | - |
| 1788080973 | 17.22° C | 99% | 1007.9 hPa | 0 mm | - | 442 W/m² | - |
| 1788080672 | 17.78° C | 99% | 1008.1 hPa | 0 mm | - | 111 W/m² | - |
| 1788080373 | 17.22° C | 99% | 1008 hPa | 0 mm | - | 444 W/m² | - |
| 1788080072 | 17.22° C | 99% | 1008 hPa | 0 mm | - | 567 W/m² | - |
* Rain latest hour (hover to see other rain measurements)
** Current wind speed in m/s (hover to see current wind gust speed)